Weather History for Fort Wayne, IN

Change the Weather History Date:

Wednesday, June 27, 2012

  Actual Average Record
Temperature  
Mean Temperature 72 °F 73 °F  
Max Temperature 91 °F 84 °F 99 °F (1944)
Min Temperature 53 °F 62 °F 41 °F (1902)
Degree Days  
Heating Degree Days 0 0  
Month to date heating degree days 26 29  
Since 1 June heating degree days 26 29  
Since 1 July heating degree days 4880 6101  
Cooling Degree Days 7 8  
Month to date cooling degree days 195 157  
Year to date cooling degree days 348 214  
Since 1 June cooling degree days 195 157  
Growing Degree Days 22 (Base 50)    
Moisture  
Dew Point 47 °F    
Average Humidity 51    
Maximum Humidity 83    
Minimum Humidity 19    
Precipitation  
Precipitation 0.00 in 0.13 in 2.25 in (1957)
Month to date precipitation 0.25 3.81  
Year to date precipitation 10.60 18.61  
Snow  
Snow 0.00 in 0.00 in 0.00 in (2002)
Month to date snowfall 0.0 0.0  
Since 1 June snowfall 0.0  
Since 1 July snowfall 32.2 33.5  
Snow Depth 0.00 in    
Sea Level Pressure  
Sea Level Pressure 29.96 in    
Wind  
Wind Speed 8 mph (SSW)    
Max Wind Speed 18 mph    
Max Gust Speed 24 mph    
Visibility 10 miles    
Events      
T = Trace of Precipitation, MM = Missing Value Source: NWS Daily Summary

Daily Weather History Graph

Daily Weather History Graph

Search for Another Location

Airport:

Trip Planner

Search our weather history database for the weather conditions in past years. The results will help you decide how hot, cold, wet, or windy it might be!

Date:

Astronomy

Jun. 27, 2012 Rise Set
Actual Time 6:10 AM EDT 9:16 PM EDT
Civil Twilight 5:37 AM EDT 9:50 PM EDT
Nautical Twilight 4:54 AM EDT 10:33 PM EDT
Astronomical Twilight 4:03 AM EDT 11:23 PM EDT
Moon 2:38 PM EDT (6/27) 1:12 AM EDT (6/27)
Length of Visible Light 16h 13m
Length of Day
15h 06m
First Quarter, 56% of the Moon is Illuminated
Jun 27
First Quarter
Jul 3
Full
Jul 10
Last Quarter
Jul 19
New
Jul 26
First Quarter

Hourly Weather History & Observations

Time (EDT) Temp. Dew Point Humidity Pressure Visibility Wind Dir Wind Speed Gust Speed Precip Events Conditions
12:54 AM 62.1 °F 48.0 °F 60% 29.98 in 10.0 mi Calm Calm - N/A   Clear
1:54 AM 59.0 °F 48.0 °F 67% 29.98 in 10.0 mi Calm Calm - N/A   Clear
2:54 AM 57.0 °F 48.0 °F 72% 29.99 in 10.0 mi Calm Calm - N/A   Clear
3:54 AM 57.0 °F 48.0 °F 72% 29.98 in 10.0 mi Calm Calm - N/A   Clear
4:54 AM 54.0 °F 48.0 °F 80% 29.98 in 10.0 mi Calm Calm - N/A   Partly Cloudy
5:54 AM 55.9 °F 48.0 °F 75% 30.00 in 10.0 mi Calm Calm - N/A   Partly Cloudy
6:54 AM 57.0 °F 48.9 °F 74% 30.00 in 10.0 mi SW 3.5 mph - N/A   Partly Cloudy
7:54 AM 64.9 °F 50.0 °F 58% 30.02 in 10.0 mi South 3.5 mph - N/A   Partly Cloudy
8:54 AM 71.1 °F 48.9 °F 45% 30.04 in 10.0 mi SW 9.2 mph - N/A   Clear
9:54 AM 75.9 °F 48.0 °F 37% 30.06 in 10.0 mi SW 13.8 mph - N/A   Partly Cloudy
10:54 AM 80.1 °F 46.9 °F 31% 30.05 in 10.0 mi SSW 12.7 mph - N/A   Partly Cloudy
11:54 AM 82.0 °F 45.0 °F 27% 30.03 in 10.0 mi SW 12.7 mph 20.7 mph N/A   Partly Cloudy
12:54 PM 84.9 °F 45.0 °F 25% 30.01 in 10.0 mi SSW 12.7 mph 20.7 mph N/A   Partly Cloudy
1:54 PM 86.0 °F 45.0 °F 24% 29.99 in 10.0 mi SW 9.2 mph - N/A   Partly Cloudy
2:54 PM 88.0 °F 44.1 °F 22% 29.97 in 10.0 mi WSW 10.4 mph - N/A   Scattered Clouds
3:54 PM 89.1 °F 43.0 °F 20% 29.95 in 10.0 mi SW 10.4 mph 19.6 mph N/A   Partly Cloudy
4:54 PM 90.0 °F 42.1 °F 19% 29.94 in 10.0 mi SW 12.7 mph - N/A   Scattered Clouds
5:54 PM 90.0 °F 43.0 °F 19% 29.91 in 10.0 mi SSW 15.0 mph - N/A   Scattered Clouds
6:54 PM 89.1 °F 44.1 °F 21% 29.88 in 10.0 mi SSW 16.1 mph 23.0 mph N/A   Partly Cloudy
7:54 PM 87.1 °F 46.9 °F 25% 29.87 in 10.0 mi SSW 11.5 mph - N/A   Partly Cloudy
8:54 PM 81.0 °F 51.1 °F 35% 29.87 in 10.0 mi SSW 6.9 mph - N/A   Partly Cloudy
9:54 PM 73.0 °F 51.1 °F 46% 29.87 in 10.0 mi SSW 6.9 mph - N/A   Partly Cloudy
10:54 PM 73.9 °F 51.1 °F 45% 29.88 in 10.0 mi South 9.2 mph - N/A   Partly Cloudy
11:54 PM 72.0 °F 52.0 °F 49% 29.88 in 10.0 mi South 6.9 mph - N/A   Partly Cloudy